EIN63K EBBR-EIDW

Flight info

Callsign EIN63K
Flight time 1h 14m
Altitude 38000
Route DENUT L610 KOPUL DCT SABER DCT SIVDA DCT RODOL UL28 LELDO M145 BAGSO BAGSO4L
Aircraft A320/M-SDE3FGHIRWY/LB1

Departure

Time 2026-05-07 19:43
Airport Brussels Airport (EBBR)

Arrival

Time 2026-05-07 20:57
Airport Dublin Airport (EIDW)
Time Latitude Longitude Altitude Speed Heading
2026-05-07 19:01 50.90301 4.48629 185 ft 0 kts 335°
2026-05-07 19:29 50.90302 4.48629 184 ft 0 kts 335°
2026-05-07 19:30 50.90296 4.48633 184 ft 2 kts 335°
2026-05-07 19:30 50.90281 4.48644 190 ft 2 kts 335°
2026-05-07 19:30 50.90265 4.48655 194 ft 2 kts
2026-05-07 19:31 50.90248 4.48654 193 ft 2 kts
2026-05-07 19:31 50.90232 4.48654 192 ft 2 kts 26°
2026-05-07 19:31 50.90221 4.48636 185 ft 1 kts 90°
2026-05-07 19:31 50.90221 4.48635 192 ft 0 kts 90°
2026-05-07 19:32 50.90221 4.48648 185 ft 4 kts 89°
2026-05-07 19:33 50.90233 4.48739 191 ft 13 kts 80°
2026-05-07 19:33 50.90284 4.48900 188 ft 18 kts 64°
2026-05-07 19:33 50.90328 4.49055 195 ft 16 kts 65°
2026-05-07 19:33 50.90374 4.49216 190 ft 16 kts 64°
2026-05-07 19:34 50.90423 4.49381 193 ft 17 kts 64°
2026-05-07 19:34 50.90472 4.49553 190 ft 17 kts 64°
2026-05-07 19:34 50.90566 4.49640 198 ft 16 kts 14°
2026-05-07 19:34 50.90627 4.49662 191 ft 2 kts 13°
2026-05-07 19:35 50.90657 4.49673 182 ft 9 kts 12°
2026-05-07 19:35 50.90721 4.49695 197 ft 9 kts 13°
2026-05-07 19:35 50.90735 4.49701 185 ft 0 kts 13°
2026-05-07 19:38 50.90759 4.49711 191 ft 12 kts 14°
2026-05-07 19:39 50.90845 4.49750 188 ft 13 kts 16°
2026-05-07 19:39 50.90910 4.49779 190 ft 7 kts 16°
2026-05-07 19:39 50.90938 4.49801 187 ft 0 kts 31°
2026-05-07 19:39 50.90939 4.49803 195 ft 3 kts 33°
2026-05-07 19:40 50.90942 4.49806 184 ft 0 kts 34°
2026-05-07 19:40 50.90976 4.49848 190 ft 15 kts 38°
2026-05-07 19:41 50.91028 4.49903 183 ft 0 kts 28°
2026-05-07 19:41 50.91037 4.49910 183 ft 6 kts 25°
2026-05-07 19:41 50.91084 4.49940 182 ft 8 kts 17°
2026-05-07 19:41 50.91131 4.49920 181 ft 7 kts 311°
2026-05-07 19:42 50.91134 4.49860 182 ft 5 kts 255°
2026-05-07 19:42 50.91112 4.49782 183 ft 25 kts 245°
2026-05-07 19:42 50.90922 4.49127 188 ft 101 kts 245°
2026-05-07 19:42 50.90544 4.47820 193 ft 157 kts 245°
2026-05-07 19:43 50.90066 4.46127 587 ft 173 kts 247°
2026-05-07 19:43 50.89779 4.44295 1310 ft 174 kts 278°
2026-05-07 19:43 50.90266 4.42446 1837 ft 191 kts 300°
2026-05-07 19:43 50.90954 4.40534 2196 ft 214 kts 301°
2026-05-07 19:44 50.91515 4.38180 2633 ft 241 kts 280°
2026-05-07 19:44 50.91761 4.35437 3236 ft 260 kts 279°
2026-05-07 19:44 50.92032 4.32599 4116 ft 266 kts 279°
2026-05-07 19:44 50.92355 4.29688 5072 ft 270 kts 287°
2026-05-07 19:45 50.93224 4.27018 5990 ft 273 kts 309°
2026-05-07 19:45 50.94422 4.24652 6740 ft 278 kts 309°
2026-05-07 19:45 50.95637 4.22253 6990 ft 279 kts 309°
2026-05-07 19:45 50.96845 4.19860 7071 ft 278 kts 309°
2026-05-07 19:46 50.98048 4.17464 7081 ft 278 kts 309°
2026-05-07 19:46 50.99247 4.15063 7081 ft 278 kts 308°
2026-05-07 19:46 51.00444 4.12659 7082 ft 277 kts 308°
2026-05-07 19:46 51.01655 4.10231 7377 ft 285 kts 309°
2026-05-07 19:47 51.02878 4.07779 8383 ft 283 kts 308°
2026-05-07 19:47 51.04105 4.05313 9286 ft 286 kts 308°
2026-05-07 19:47 51.05344 4.02820 10130 ft 289 kts 308°
2026-05-07 19:47 51.06621 4.00253 10536 ft 311 kts 308°
2026-05-07 19:48 51.08020 3.97430 10924 ft 329 kts 308°
2026-05-07 19:48 51.09451 3.94533 11635 ft 336 kts 307°
2026-05-07 19:48 51.10899 3.91596 12422 ft 339 kts 307°
2026-05-07 19:48 51.12360 3.88637 12905 ft 340 kts 307°
2026-05-07 19:49 51.13821 3.85681 13050 ft 339 kts 307°
2026-05-07 19:49 51.15280 3.82729 13079 ft 339 kts 307°
2026-05-07 19:49 51.16731 3.79785 13081 ft 338 kts 307°
2026-05-07 19:49 51.18183 3.76836 13082 ft 338 kts 307°
2026-05-07 19:50 51.19632 3.73882 13084 ft 339 kts 307°
2026-05-07 19:50 51.21083 3.70927 13081 ft 338 kts 307°
2026-05-07 19:50 51.22506 3.67922 13241 ft 342 kts 301°
2026-05-07 19:50 51.23592 3.64556 14031 ft 342 kts 290°
2026-05-07 19:51 51.24266 3.60915 14769 ft 344 kts 281°
2026-05-07 19:51 51.24774 3.57168 15488 ft 347 kts 281°
2026-05-07 19:51 51.25278 3.53388 16184 ft 350 kts 281°
2026-05-07 19:51 51.25778 3.49580 16839 ft 353 kts 281°
2026-05-07 19:52 51.26278 3.45727 17473 ft 356 kts 281°
2026-05-07 19:52 51.26784 3.41843 18109 ft 359 kts 281°
2026-05-07 19:52 51.27296 3.37928 18716 ft 362 kts 281°
2026-05-07 19:52 51.27810 3.33977 19310 ft 365 kts 281°
2026-05-07 19:53 51.28325 3.29993 19903 ft 368 kts 281°
2026-05-07 19:53 51.28842 3.25974 20475 ft 371 kts 281°
2026-05-07 19:53 51.29361 3.21919 21045 ft 374 kts 280°
2026-05-07 19:53 51.29882 3.17830 21617 ft 377 kts 280°
2026-05-07 19:54 51.30408 3.13708 22148 ft 380 kts 280°
2026-05-07 19:54 51.30935 3.09552 22690 ft 383 kts 280°
2026-05-07 19:54 51.31465 3.05366 23210 ft 386 kts 280°
2026-05-07 19:54 51.31998 3.01154 23707 ft 389 kts 280°
2026-05-07 19:55 51.32534 2.96906 24197 ft 391 kts 280°
2026-05-07 19:55 51.33071 2.92628 24663 ft 394 kts 280°
2026-05-07 19:55 51.33611 2.88314 25120 ft 396 kts 280°
2026-05-07 19:55 51.34150 2.83981 25571 ft 398 kts 280°
2026-05-07 19:56 51.34687 2.79642 25987 ft 401 kts 280°
2026-05-07 19:56 51.35227 2.75248 26391 ft 403 kts 279°
2026-05-07 19:56 51.35770 2.70841 26806 ft 405 kts 279°
2026-05-07 19:56 51.36317 2.66413 27204 ft 407 kts 280°
2026-05-07 19:57 51.36867 2.61962 27586 ft 409 kts 280°
2026-05-07 19:57 51.37416 2.57486 27953 ft 411 kts 279°
2026-05-07 19:57 51.37968 2.52990 28324 ft 412 kts 279°
2026-05-07 19:57 51.38522 2.48478 28699 ft 414 kts 279°
2026-05-07 19:58 51.39077 2.43945 29038 ft 416 kts 279°
2026-05-07 19:58 51.39628 2.39394 29376 ft 417 kts 279°
2026-05-07 19:58 51.40176 2.34820 29698 ft 419 kts 279°
2026-05-07 19:58 51.40723 2.30229 30021 ft 420 kts 279°
2026-05-07 19:59 51.41273 2.25619 30308 ft 422 kts 279°
2026-05-07 19:59 51.41833 2.20988 30587 ft 424 kts 279°
2026-05-07 19:59 51.42401 2.16352 30849 ft 426 kts 279°
2026-05-07 19:59 51.42975 2.11684 31105 ft 428 kts 279°
2026-05-07 20:00 51.43548 2.06995 31350 ft 430 kts 279°
2026-05-07 20:00 51.44119 2.02277 31589 ft 431 kts 279°
2026-05-07 20:00 51.44688 1.97553 31878 ft 431 kts 279°
2026-05-07 20:00 51.45250 1.92836 32200 ft 431 kts 279°
2026-05-07 20:01 51.45808 1.88119 32507 ft 431 kts 279°
2026-05-07 20:01 51.46360 1.83397 32806 ft 431 kts 279°
2026-05-07 20:01 51.46904 1.78675 33109 ft 430 kts 279°
2026-05-07 20:01 51.47442 1.73959 33416 ft 430 kts 279°
2026-05-07 20:02 51.47979 1.69252 33711 ft 429 kts 279°
2026-05-07 20:02 51.48549 1.64261 34023 ft 429 kts 279°
2026-05-07 20:02 51.49054 1.59861 34301 ft 429 kts 279°
2026-05-07 20:02 51.49593 1.55156 34587 ft 429 kts 279°
2026-05-07 20:03 51.50120 1.50530 34851 ft 429 kts 279°
2026-05-07 20:03 51.50591 1.46369 35069 ft 429 kts 278°
2026-05-07 20:03 51.51121 1.41656 35325 ft 429 kts 278°
2026-05-07 20:03 51.51652 1.36927 35564 ft 430 kts 278°
2026-05-07 20:04 51.52179 1.32212 35801 ft 430 kts 278°
2026-05-07 20:04 51.52704 1.27491 36024 ft 430 kts 278°
2026-05-07 20:04 51.53256 1.22776 36231 ft 430 kts 282°
2026-05-07 20:04 51.54205 1.18207 36412 ft 433 kts 292°
2026-05-07 20:05 51.55670 1.13961 36586 ft 437 kts 303°
2026-05-07 20:05 51.57644 1.10152 36805 ft 439 kts 314°
2026-05-07 20:05 51.59996 1.07030 37107 ft 439 kts 322°
2026-05-07 20:05 51.62466 1.04187 37354 ft 437 kts 322°
2026-05-07 20:06 51.64933 1.01331 37540 ft 437 kts 322°
2026-05-07 20:06 51.67396 0.98460 37700 ft 437 kts 322°
2026-05-07 20:06 51.69860 0.95580 37857 ft 438 kts 321°
2026-05-07 20:06 51.72275 0.92598 38027 ft 437 kts 319°
2026-05-07 20:07 51.76910 0.86237 38081 ft 437 kts 316°
2026-05-07 20:07 51.81431 0.79703 38083 ft 437 kts 316°
2026-05-07 20:08 51.85994 0.73218 38082 ft 437 kts 317°
2026-05-07 20:08 51.90598 0.66794 38081 ft 437 kts 317°
2026-05-07 20:09 51.95213 0.60378 38081 ft 437 kts 317°
2026-05-07 20:10 52.02119 0.50701 38087 ft 437 kts 317°
2026-05-07 20:10 52.06713 0.44198 38092 ft 438 kts 316°
2026-05-07 20:11 52.11304 0.37690 38088 ft 438 kts 316°
2026-05-07 20:11 52.15892 0.31165 38091 ft 438 kts 316°
2026-05-07 20:12 52.20480 0.24634 38089 ft 438 kts 316°
2026-05-07 20:12 52.25069 0.18087 38099 ft 438 kts 316°
2026-05-07 20:13 52.29657 0.11519 38096 ft 439 kts 316°
2026-05-07 20:13 52.34208 0.04979 38099 ft 439 kts 316°
2026-05-07 20:14 52.38231 -0.02440 38102 ft 436 kts 306°
2026-05-07 20:14 52.41989 -0.10236 38092 ft 436 kts 306°
2026-05-07 20:15 52.45737 -0.18044 38081 ft 437 kts 306°
2026-05-07 20:15 52.48855 -0.24559 38074 ft 437 kts 306°
2026-05-07 20:16 52.52606 -0.32406 38070 ft 437 kts 306°
2026-05-07 20:16 52.56353 -0.40251 38069 ft 437 kts 306°
2026-05-07 20:17 52.60102 -0.48133 38065 ft 437 kts 306°
2026-05-07 20:17 52.63835 -0.56020 38061 ft 437 kts 306°
2026-05-07 20:18 52.67560 -0.63938 38060 ft 437 kts 306°
2026-05-07 20:18 52.71289 -0.71863 38060 ft 437 kts 306°
2026-05-07 20:19 52.75017 -0.79799 38058 ft 437 kts 306°
2026-05-07 20:19 52.78732 -0.87745 38058 ft 438 kts 305°
2026-05-07 20:20 52.82450 -0.95725 38060 ft 438 kts 305°
2026-05-07 20:20 52.86158 -1.03704 38063 ft 438 kts 305°
2026-05-07 20:21 52.89873 -1.11711 38065 ft 438 kts 305°
2026-05-07 20:21 52.93578 -1.19739 38065 ft 439 kts 305°
2026-05-07 20:22 52.97305 -1.27841 38066 ft 438 kts 305°
2026-05-07 20:22 53.00998 -1.35904 38067 ft 439 kts 305°
2026-05-07 20:23 53.04692 -1.43969 38067 ft 439 kts 305°
2026-05-07 20:23 53.08387 -1.52068 38063 ft 439 kts 305°
2026-05-07 20:24 53.12075 -1.60177 38060 ft 439 kts 305°
2026-05-07 20:24 53.15760 -1.68310 38057 ft 440 kts 305°
2026-05-07 20:25 53.19437 -1.76465 38051 ft 440 kts 304°
2026-05-07 20:25 53.23096 -1.84639 38042 ft 439 kts 302°
2026-05-07 20:26 53.26000 -1.93526 38035 ft 436 kts 294°
2026-05-07 20:26 53.28709 -2.02608 38031 ft 437 kts 294°
2026-05-07 20:27 53.31412 -2.11714 38030 ft 437 kts 294°
2026-05-07 20:27 53.34110 -2.20838 38032 ft 438 kts 294°
2026-05-07 20:28 53.36467 -2.30177 38032 ft 435 kts 285°
2026-05-07 20:28 53.38316 -2.39836 38036 ft 436 kts 285°
2026-05-07 20:29 53.40151 -2.49508 38039 ft 435 kts 285°
2026-05-07 20:29 53.41979 -2.59182 38039 ft 435 kts 285°
2026-05-07 20:30 53.43799 -2.68845 38040 ft 435 kts 285°
2026-05-07 20:30 53.45608 -2.78517 38038 ft 434 kts 285°
2026-05-07 20:31 53.47397 -2.88184 38038 ft 434 kts 285°
2026-05-07 20:31 53.49191 -2.97855 38038 ft 434 kts 285°
2026-05-07 20:31 53.50088 -3.02696 37833 ft 434 kts 285°
2026-05-07 20:32 53.50981 -3.07531 37581 ft 433 kts 285°
2026-05-07 20:32 53.51867 -3.12363 37041 ft 433 kts 284°
2026-05-07 20:32 53.52749 -3.17205 36277 ft 435 kts 284°
2026-05-07 20:32 53.53633 -3.22080 35506 ft 437 kts 284°
2026-05-07 20:33 53.54520 -3.26966 34947 ft 435 kts 284°
2026-05-07 20:33 53.55401 -3.31806 34409 ft 432 kts 284°
2026-05-07 20:33 53.56276 -3.36623 33851 ft 430 kts 284°
2026-05-07 20:33 53.57143 -3.41414 33321 ft 427 kts 284°
2026-05-07 20:34 53.57998 -3.46167 32791 ft 424 kts 284°
2026-05-07 20:34 53.58849 -3.50913 32232 ft 422 kts 284°
2026-05-07 20:34 53.59691 -3.55627 31690 ft 419 kts 284°
2026-05-07 20:34 53.60527 -3.60316 31168 ft 417 kts 283°
2026-05-07 20:35 53.61357 -3.64970 30648 ft 413 kts 284°
2026-05-07 20:35 53.62356 -3.69501 30126 ft 412 kts 289°
2026-05-07 20:35 53.63429 -3.73958 29618 ft 409 kts 289°
2026-05-07 20:35 53.64493 -3.78383 29114 ft 406 kts 289°
2026-05-07 20:36 53.65549 -3.82773 28628 ft 402 kts 289°
2026-05-07 20:36 53.66592 -3.87128 28141 ft 399 kts 289°
2026-05-07 20:36 53.67621 -3.91449 27679 ft 395 kts 289°
2026-05-07 20:36 53.68635 -3.95731 27225 ft 391 kts 289°
2026-05-07 20:37 53.69638 -3.99970 26772 ft 388 kts 289°
2026-05-07 20:37 53.70634 -4.04176 26334 ft 384 kts 289°
2026-05-07 20:37 53.71465 -4.08417 25889 ft 378 kts 279°
2026-05-07 20:37 53.71832 -4.12765 25429 ft 372 kts 271°
2026-05-07 20:38 53.71990 -4.17099 24976 ft 368 kts 271°
2026-05-07 20:38 53.72151 -4.21393 24515 ft 365 kts 271°
2026-05-07 20:38 53.72314 -4.25657 24048 ft 362 kts 271°
2026-05-07 20:38 53.72477 -4.29885 23571 ft 360 kts 271°
2026-05-07 20:39 53.72635 -4.34086 23102 ft 357 kts 271°
2026-05-07 20:39 53.72785 -4.38249 22632 ft 355 kts 271°
2026-05-07 20:39 53.72932 -4.42404 22161 ft 353 kts 271°
2026-05-07 20:39 53.73078 -4.46527 21693 ft 351 kts 271°
2026-05-07 20:40 53.73223 -4.50614 21236 ft 349 kts 271°
2026-05-07 20:40 53.73369 -4.54687 20778 ft 346 kts 271°
2026-05-07 20:40 53.73513 -4.58735 20320 ft 344 kts 271°
2026-05-07 20:40 53.73653 -4.62757 19865 ft 342 kts 271°
2026-05-07 20:41 53.73791 -4.66751 19423 ft 340 kts 270°
2026-05-07 20:41 53.73926 -4.70720 18981 ft 337 kts 270°
2026-05-07 20:41 53.74054 -4.74664 18542 ft 335 kts 270°
2026-05-07 20:41 53.74178 -4.78584 18113 ft 333 kts 270°
2026-05-07 20:42 53.74303 -4.82481 17684 ft 331 kts 270°
2026-05-07 20:42 53.74431 -4.86353 17261 ft 329 kts 270°
2026-05-07 20:42 53.74558 -4.90201 16837 ft 327 kts 270°
2026-05-07 20:42 53.74683 -4.94030 16416 ft 326 kts 270°
2026-05-07 20:43 53.74807 -4.97838 16002 ft 324 kts 270°
2026-05-07 20:43 53.74927 -5.01627 15596 ft 322 kts 270°
2026-05-07 20:43 53.75046 -5.05448 15183 ft 320 kts 270°
2026-05-07 20:43 53.75163 -5.09186 14786 ft 318 kts 270°
2026-05-07 20:44 53.75214 -5.12907 14381 ft 315 kts 263°
2026-05-07 20:44 53.74816 -5.16503 13983 ft 310 kts 251°
2026-05-07 20:44 53.74118 -5.19931 13595 ft 308 kts 249°
2026-05-07 20:44 53.73375 -5.23312 13071 ft 308 kts 242°
2026-05-07 20:45 53.72090 -5.26186 12587 ft 307 kts 221°
2026-05-07 20:45 53.70419 -5.28399 12192 ft 304 kts 217°
2026-05-07 20:45 53.68749 -5.30534 11959 ft 296 kts 217°
2026-05-07 20:45 53.67133 -5.32590 11784 ft 287 kts 217°
2026-05-07 20:46 53.65554 -5.34594 11343 ft 282 kts 217°
2026-05-07 20:46 53.63989 -5.36575 10835 ft 281 kts 217°
2026-05-07 20:46 53.62432 -5.38543 10352 ft 279 kts 217°
2026-05-07 20:46 53.60888 -5.40492 9919 ft 276 kts 217°
2026-05-07 20:47 53.59357 -5.42422 9538 ft 274 kts 217°
2026-05-07 20:47 53.57836 -5.44340 9150 ft 273 kts 216°
2026-05-07 20:47 53.56322 -5.46250 8759 ft 271 kts 216°
2026-05-07 20:47 53.54821 -5.48138 8463 ft 266 kts 216°
2026-05-07 20:48 53.53449 -5.50135 8301 ft 257 kts 230°
2026-05-07 20:48 53.52573 -5.52647 8173 ft 242 kts 242°
2026-05-07 20:48 53.51842 -5.55162 8046 ft 238 kts 242°
2026-05-07 20:48 53.51121 -5.57650 7927 ft 236 kts 242°
2026-05-07 20:49 53.50401 -5.60136 7705 ft 236 kts 242°
2026-05-07 20:49 53.49684 -5.62605 7398 ft 234 kts 242°
2026-05-07 20:49 53.48970 -5.65057 7065 ft 233 kts 242°
2026-05-07 20:49 53.48260 -5.67493 6704 ft 232 kts 242°
2026-05-07 20:50 53.47549 -5.69923 6347 ft 232 kts 242°
2026-05-07 20:50 53.46837 -5.72349 5979 ft 231 kts 242°
2026-05-07 20:50 53.46129 -5.74759 5608 ft 230 kts 242°
2026-05-07 20:50 53.45421 -5.77166 5232 ft 229 kts 241°
2026-05-07 20:51 53.44716 -5.79568 4856 ft 229 kts 242°
2026-05-07 20:51 53.44018 -5.81955 4484 ft 228 kts 241°
2026-05-07 20:51 53.43322 -5.84334 4164 ft 225 kts 241°
2026-05-07 20:51 53.42645 -5.86638 4101 ft 216 kts 241°
2026-05-07 20:52 53.42004 -5.88819 4037 ft 202 kts 240°
2026-05-07 20:52 53.41400 -5.90875 3960 ft 191 kts 240°
2026-05-07 20:52 53.40826 -5.92825 3879 ft 182 kts 240°
2026-05-07 20:52 53.40506 -5.94112 3818 ft 181 kts 250°
2026-05-07 20:53 53.40389 -5.96240 3570 ft 187 kts 271°
2026-05-07 20:53 53.40519 -5.98403 3311 ft 186 kts 270°
2026-05-07 20:53 53.40643 -6.00555 3067 ft 185 kts 270°
2026-05-07 20:53 53.40765 -6.02688 2826 ft 184 kts 271°
2026-05-07 20:54 53.40887 -6.04822 2581 ft 184 kts 271°
2026-05-07 20:54 53.41008 -6.06942 2368 ft 179 kts 271°
2026-05-07 20:54 53.41123 -6.08952 2113 ft 168 kts 272°
2026-05-07 20:54 53.41231 -6.10857 1882 ft 162 kts 272°
2026-05-07 20:55 53.41336 -6.12721 1668 ft 159 kts 272°
2026-05-07 20:55 53.41439 -6.14553 1465 ft 158 kts 273°
2026-05-07 20:55 53.41542 -6.16385 1260 ft 158 kts 274°
2026-05-07 20:55 53.41641 -6.18151 1052 ft 147 kts 274°
2026-05-07 20:56 53.41735 -6.19816 850 ft 142 kts 273°
2026-05-07 20:56 53.41821 -6.21444 647 ft 139 kts 274°
2026-05-07 20:56 53.41911 -6.23064 508 ft 140 kts 272°
2026-05-07 20:56 53.42002 -6.24693 291 ft 139 kts 274°
2026-05-07 20:57 53.42087 -6.26233 215 ft 116 kts 275°
2026-05-07 20:57 53.42149 -6.27292 210 ft 68 kts 275°
2026-05-07 20:57 53.42202 -6.27858 211 ft 38 kts 289°
2026-05-07 20:57 53.42294 -6.28113 218 ft 19 kts 317°
2026-05-07 20:58 53.42361 -6.28028 211 ft 15 kts 89°
2026-05-07 20:58 53.42353 -6.27855 218 ft 14 kts 94°
2026-05-07 20:58 53.42344 -6.27699 214 ft 13 kts 95°
2026-05-07 20:58 53.42337 -6.27558 215 ft 11 kts 95°
2026-05-07 20:59 53.42330 -6.27428 211 ft 13 kts 96°
2026-05-07 20:59 53.42320 -6.27271 216 ft 13 kts 95°
2026-05-07 20:59 53.42312 -6.27128 217 ft 12 kts 95°
2026-05-07 20:59 53.42305 -6.26996 212 ft 13 kts 95°
2026-05-07 21:00 53.42297 -6.26805 211 ft 20 kts 96°
2026-05-07 21:00 53.42282 -6.26566 211 ft 14 kts 93°
2026-05-07 21:00 53.42275 -6.26408 215 ft 15 kts 96°
2026-05-07 21:00 53.42262 -6.26187 212 ft 23 kts 96°
2026-05-07 21:01 53.42246 -6.25900 214 ft 26 kts 95°
2026-05-07 21:01 53.42228 -6.25591 214 ft 28 kts 95°
2026-05-07 21:01 53.42212 -6.25297 215 ft 22 kts 95°
2026-05-07 21:01 53.42199 -6.25062 211 ft 16 kts 92°
2026-05-07 21:02 53.42189 -6.24875 214 ft 16 kts 94°
2026-05-07 21:02 53.42182 -6.24734 211 ft 11 kts 95°
2026-05-07 21:02 53.42175 -6.24617 218 ft 10 kts 95°
2026-05-07 21:02 53.42170 -6.24512 213 ft 9 kts 95°
2026-05-07 21:03 53.42173 -6.24424 214 ft 7 kts 52°
2026-05-07 21:03 53.42213 -6.24407 215 ft 6 kts
2026-05-07 21:03 53.42239 -6.24422 215 ft 2 kts 332°
2026-05-07 21:03 53.42248 -6.24430 211 ft 2 kts 332°
2026-05-07 21:04 53.42252 -6.24434 211 ft 0 kts 332°